timestamp,wind_dir_avg,wind_spd_avg,wind_spd_max_dir,wind_spd_gust,battery_voltage,lat,long
2024-03-16 00:04:00+00:00,315.0,0.01,232.0,0.0,12.25,47.59359,-54.27349
2024-03-16 00:14:01+00:00,315.0,0.01,232.0,0.0,12.17,47.59359,-54.27349
2024-03-16 00:24:01+00:00,315.0,0.01,232.0,0.0,12.17,47.59359,-54.27349
2024-03-16 00:34:01+00:00,315.0,0.01,257.0,0.0,12.17,47.59359,-54.27349
2024-03-16 00:44:01+00:00,315.0,0.01,257.0,0.0,12.17,47.59359,-54.27349
2024-03-16 00:54:01+00:00,315.0,0.01,257.0,0.0,12.17,47.59359,-54.27349
2024-03-16 01:04:01+00:00,315.0,0.01,261.0,0.0,12.17,47.59359,-54.27349
2024-03-16 01:14:00+00:00,254.0,9.02,255.0,9.04,12.17,47.59359,-54.27349
2024-03-16 01:24:00+00:00,315.0,0.01,259.0,0.0,12.17,47.59359,-54.27349
2024-03-16 01:34:00+00:00,315.0,0.01,254.0,0.0,12.17,47.59359,-54.27349
2024-03-16 01:44:00+00:00,315.0,0.01,253.0,0.0,12.17,47.59359,-54.27349
2024-03-16 01:54:00+00:00,315.0,0.01,252.0,0.0,12.17,47.59359,-54.27349
2024-03-16 02:04:00+00:00,315.0,0.01,232.0,0.0,12.17,47.59359,-54.27349
2024-03-16 02:14:00+00:00,192.0,2.01,193.0,2.02,12.09,47.59359,-54.27349
2024-03-16 02:24:00+00:00,155.0,2.9,156.0,2.9,12.09,47.59359,-54.27349
2024-03-16 02:34:00+00:00,315.0,0.01,142.0,0.0,12.09,47.59359,-54.27349
2024-03-16 02:44:00+00:00,228.0,4.25,229.0,4.27,12.09,47.59359,-54.27349
2024-03-16 02:54:00+00:00,198.0,3.66,199.0,3.67,12.09,47.59359,-54.27349
2024-03-16 03:04:00+00:00,227.0,4.5,230.0,4.68,12.09,47.59359,-54.27349
2024-03-16 03:14:00+00:00,315.0,0.01,198.0,0.0,12.09,47.59359,-54.27349
2024-03-16 03:24:00+00:00,199.0,3.56,200.0,3.56,12.09,47.59359,-54.27349
2024-03-16 03:34:00+00:00,203.0,3.95,204.0,3.96,12.09,47.59359,-54.27349
2024-03-16 03:44:00+00:00,228.0,4.9,229.0,4.91,12.09,47.59359,-54.27349
2024-03-16 03:54:00+00:00,210.0,3.91,222.0,4.46,12.09,47.59359,-54.27349
2024-03-16 04:04:00+00:00,232.0,4.79,233.0,4.8,12.09,47.59359,-54.27349
2024-03-16 04:14:00+00:00,231.0,6.23,243.0,9.24,12.09,47.59359,-54.27349
2024-03-16 04:24:00+00:00,226.0,4.19,225.0,4.71,12.09,47.59359,-54.27349
2024-03-16 04:34:00+00:00,225.0,3.76,228.0,4.72,12.09,47.59359,-54.27349
2024-03-16 04:44:00+00:00,213.0,4.25,219.0,5.13,12.09,47.59359,-54.27349
2024-03-16 04:54:00+00:00,222.0,2.62,229.0,4.66,12.09,47.59359,-54.27349
2024-03-16 05:04:00+00:00,227.0,4.23,230.0,4.64,12.09,47.59359,-54.27349
2024-03-16 05:14:00+00:00,221.0,3.23,231.0,4.55,12.09,47.59359,-54.27349
2024-03-16 05:24:00+00:00,194.0,2.41,230.0,4.16,12.09,47.59359,-54.27349
2024-03-16 05:34:00+00:00,210.0,3.01,228.0,4.46,12.09,47.59359,-54.27349
2024-03-16 05:44:00+00:00,219.0,3.86,229.0,5.0,12.09,47.59359,-54.27349
2024-03-16 05:54:00+00:00,224.0,3.79,230.0,4.48,12.09,47.59359,-54.27349
2024-03-16 06:04:00+00:00,222.0,4.16,227.0,4.68,12.09,47.59359,-54.27349
2024-03-16 06:14:00+00:00,229.0,4.42,229.0,4.78,12.09,47.59359,-54.27349
2024-03-16 06:24:00+00:00,225.0,4.46,254.0,7.61,12.09,47.59359,-54.27349
2024-03-16 06:34:00+00:00,214.0,3.36,223.0,4.6,12.09,47.59359,-54.27349
2024-03-16 06:44:00+00:00,229.0,4.05,230.0,4.46,12.09,47.59359,-54.27349
2024-03-16 06:54:00+00:00,226.0,3.96,228.0,4.57,12.09,47.59359,-54.27349
2024-03-16 07:04:00+00:00,199.0,2.74,229.0,3.99,12.09,47.59359,-54.27349
2024-03-16 07:14:00+00:00,165.0,2.74,228.0,4.14,12.01,47.59359,-54.27349
2024-03-16 07:24:00+00:00,148.0,2.31,149.0,2.8,12.01,47.59359,-54.27349
2024-03-16 07:34:00+00:00,136.0,2.65,147.0,3.11,12.01,47.59359,-54.27349
2024-03-16 07:44:00+00:00,162.0,2.31,156.0,2.8,12.01,47.59359,-54.27349
2024-03-16 07:54:00+00:00,156.0,2.54,199.0,2.87,12.01,47.59359,-54.27349
2024-03-16 08:04:00+00:00,152.0,2.9,155.0,3.17,12.01,47.59359,-54.27349
2024-03-16 08:14:00+00:00,169.0,1.64,217.0,2.25,12.01,47.59359,-54.27349
2024-03-16 08:24:00+00:00,164.0,1.48,234.0,2.26,12.01,47.59359,-54.27349
2024-03-16 08:34:00+00:00,147.0,2.58,149.0,3.16,12.01,47.59359,-54.27349
2024-03-16 08:44:00+00:00,158.0,3.22,154.0,3.53,12.01,47.59359,-54.27349
2024-03-16 08:54:00+00:00,150.0,2.78,155.0,3.16,12.01,47.59359,-54.27349
2024-03-16 09:04:00+00:00,141.0,2.36,136.0,2.9,12.01,47.59359,-54.27349
2024-03-16 09:14:01+00:00,144.0,2.55,155.0,3.04,11.93,47.59359,-54.27349
2024-03-16 09:24:01+00:00,148.0,3.03,151.0,3.19,11.93,47.59359,-54.27349
2024-03-16 09:34:01+00:00,155.0,3.25,153.0,3.6,11.93,47.59359,-54.27349
2024-03-16 09:44:01+00:00,156.0,2.98,155.0,3.47,11.93,47.59359,-54.27349
2024-03-16 09:54:01+00:00,148.0,2.99,145.0,3.35,11.93,47.59359,-54.27349
2024-03-16 10:04:01+00:00,154.0,3.02,155.0,3.26,11.93,47.59359,-54.27349
2024-03-16 10:14:00+00:00,148.0,3.24,152.0,3.6,11.93,47.59359,-54.27349
2024-03-16 10:24:00+00:00,157.0,2.86,158.0,3.12,11.93,47.59359,-54.27349
2024-03-16 10:34:00+00:00,154.0,2.71,158.0,3.09,11.93,47.59359,-54.27349
2024-03-16 10:44:00+00:00,148.0,2.52,149.0,3.03,11.93,47.59359,-54.27349
2024-03-16 10:54:00+00:00,169.0,2.84,228.0,4.01,11.93,47.59359,-54.27349
2024-03-16 11:04:00+00:00,141.0,1.91,139.0,2.14,11.93,47.59359,-54.27349
2024-03-16 11:14:00+00:00,127.0,1.43,123.0,1.81,12.01,47.59359,-54.27349
2024-03-16 11:24:00+00:00,128.0,1.39,127.0,1.5,12.01,47.59359,-54.27349
2024-03-16 11:34:00+00:00,102.0,1.63,96.0,1.97,12.01,47.59359,-54.27349
2024-03-16 11:44:00+00:00,123.0,2.47,123.0,2.66,12.01,47.59359,-54.27349
2024-03-16 11:54:00+00:00,134.0,2.07,139.0,2.42,12.01,47.59359,-54.27349
2024-03-16 12:04:00+00:00,139.0,2.73,132.0,2.98,12.01,47.59359,-54.27349
2024-03-16 12:14:00+00:00,139.0,2.66,140.0,2.82,12.57,47.59359,-54.27349
2024-03-16 12:24:00+00:00,105.0,2.39,106.0,2.64,12.57,47.59359,-54.27349
2024-03-16 12:34:00+00:00,270.0,0.65,270.0,0.93,12.57,47.59359,-54.27349
2024-03-16 12:44:00+00:00,352.0,0.59,339.0,0.66,12.57,47.59359,-54.27349
2024-03-16 12:54:00+00:00,82.0,0.15,84.0,0.32,12.57,47.59359,-54.27349
2024-03-16 13:04:00+00:00,195.0,0.65,205.0,0.77,12.57,47.59359,-54.27349
2024-03-16 13:14:00+00:00,214.0,0.42,209.0,0.53,13.21,47.59359,-54.27349
2024-03-16 13:24:00+00:00,82.0,0.51,78.0,0.71,13.21,47.59359,-54.27349
2024-03-16 13:34:00+00:00,252.0,2.18,258.0,2.78,13.21,47.59359,-54.27349
2024-03-16 13:44:00+00:00,253.0,2.11,255.0,2.6,13.21,47.59359,-54.27349
2024-03-16 13:54:00+00:00,249.0,1.99,252.0,2.59,13.21,47.59359,-54.27349
2024-03-16 14:04:00+00:00,229.0,1.81,244.0,2.69,13.21,47.59359,-54.27349
2024-03-16 14:14:01+00:00,225.0,1.76,243.0,2.9,13.53,47.59359,-54.27349
2024-03-16 14:24:01+00:00,234.0,2.08,242.0,2.8,13.53,47.59359,-54.27349
2024-03-16 14:34:01+00:00,198.0,1.03,244.0,2.27,13.53,47.59359,-54.27349
2024-03-16 14:44:01+00:00,250.0,2.09,253.0,2.69,13.53,47.59359,-54.27349
2024-03-16 14:54:01+00:00,254.0,2.46,253.0,2.59,13.53,47.59359,-54.27349
2024-03-16 15:04:01+00:00,165.0,0.67,251.0,1.93,13.53,47.59359,-54.27349
2024-03-16 15:14:00+00:00,132.0,0.96,130.0,1.23,13.68,47.59359,-54.27349
2024-03-16 15:24:00+00:00,156.0,0.85,238.0,1.54,13.68,47.59359,-54.27349
2024-03-16 15:34:00+00:00,95.0,0.67,94.0,0.8,13.68,47.59359,-54.27349
2024-03-16 15:44:00+00:00,36.0,0.93,44.0,1.19,13.68,47.59359,-54.27349
2024-03-16 15:54:00+00:00,7.0,0.16,46.0,0.27,13.68,47.59359,-54.27349
2024-03-16 16:04:00+00:00,28.0,0.39,40.0,0.49,13.68,47.59359,-54.27349
2024-03-16 16:14:01+00:00,16.0,0.49,37.0,0.69,13.6,47.59359,-54.27349
2024-03-16 16:24:01+00:00,7.0,0.38,7.0,0.49,13.6,47.59359,-54.27349
2024-03-16 16:34:01+00:00,27.0,0.49,33.0,0.63,13.6,47.59359,-54.27349
2024-03-16 16:44:01+00:00,317.0,0.5,308.0,0.62,13.6,47.59359,-54.27349
2024-03-16 16:54:01+00:00,327.0,0.28,326.0,0.3,13.6,47.59359,-54.27349
2024-03-16 17:04:01+00:00,84.0,0.32,87.0,0.4,13.6,47.59359,-54.27349
2024-03-16 17:14:00+00:00,61.0,0.68,68.0,0.85,13.53,47.59359,-54.27349
2024-03-16 17:24:00+00:00,315.0,0.01,322.0,0.0,13.53,47.59359,-54.27349
2024-03-16 17:34:00+00:00,304.0,0.36,299.0,0.49,13.53,47.59359,-54.27349
2024-03-16 17:44:00+00:00,78.0,2.6,78.0,2.76,13.53,47.59359,-54.27349
2024-03-16 17:54:00+00:00,97.0,1.59,101.0,1.65,13.53,47.59359,-54.27349
2024-03-16 18:04:00+00:00,88.0,1.27,87.0,1.42,13.53,47.59359,-54.27349
2024-03-16 18:14:00+00:00,92.0,1.42,91.0,1.65,13.53,47.59359,-54.27349
2024-03-16 18:24:00+00:00,92.0,2.32,93.0,2.43,13.53,47.59359,-54.27349
2024-03-16 18:34:00+00:00,98.0,1.96,97.0,2.12,13.53,47.59359,-54.27349
2024-03-16 18:44:00+00:00,93.0,2.48,95.0,2.66,13.53,47.59359,-54.27349
2024-03-16 18:54:00+00:00,89.0,1.09,89.0,2.85,13.53,47.59359,-54.27349
2024-03-16 19:04:00+00:00,158.0,0.63,148.0,0.78,13.53,47.59359,-54.27349
2024-03-16 19:14:00+00:00,185.0,0.72,185.0,0.82,13.53,47.59359,-54.27349
2024-03-16 19:24:00+00:00,315.0,0.01,103.0,0.0,13.53,47.59359,-54.27349
2024-03-16 19:34:00+00:00,79.0,0.28,80.0,0.47,13.53,47.59359,-54.27349
2024-03-16 19:44:00+00:00,357.0,1.26,350.0,1.51,13.53,47.59359,-54.27349
2024-03-16 19:54:00+00:00,1.0,0.67,0.0,0.83,13.53,47.59359,-54.27349
2024-03-16 20:04:00+00:00,321.0,1.31,292.0,2.98,13.53,47.59359,-54.27349
2024-03-16 20:14:01+00:00,304.0,2.9,303.0,3.04,13.37,47.59359,-54.27349
2024-03-16 20:24:01+00:00,323.0,2.9,322.0,3.2,13.37,47.59359,-54.27349
2024-03-16 20:34:01+00:00,334.0,2.14,53.0,3.83,13.37,47.59359,-54.27349
2024-03-16 20:44:01+00:00,36.0,3.34,48.0,4.3,13.37,47.59359,-54.27349
2024-03-16 20:54:01+00:00,55.0,4.22,53.0,4.51,13.37,47.59359,-54.27349
2024-03-16 21:04:01+00:00,42.0,3.29,53.0,4.38,13.37,47.59359,-54.27349
2024-03-16 21:14:00+00:00,33.0,2.78,48.0,4.36,13.05,47.59359,-54.27349
2024-03-16 21:24:00+00:00,349.0,1.43,66.0,3.57,13.05,47.59359,-54.27349
2024-03-16 21:34:00+00:00,275.0,1.6,279.0,2.36,13.05,47.59359,-54.27349
2024-03-16 21:44:00+00:00,276.0,1.86,279.0,2.46,13.05,47.59359,-54.27349
2024-03-16 21:54:00+00:00,297.0,1.78,293.0,2.29,13.05,47.59359,-54.27349
2024-03-16 22:04:00+00:00,297.0,1.78,296.0,2.04,13.05,47.59359,-54.27349
2024-03-16 22:14:00+00:00,304.0,1.52,308.0,1.79,12.49,47.59359,-54.27349
2024-03-16 22:24:00+00:00,288.0,1.83,279.0,2.36,12.49,47.59359,-54.27349
2024-03-16 22:34:00+00:00,285.0,2.08,289.0,2.21,12.49,47.59359,-54.27349
2024-03-16 22:44:00+00:00,303.0,2.98,300.0,3.42,12.49,47.59359,-54.27349
2024-03-16 22:54:00+00:00,315.0,3.16,314.0,3.33,12.49,47.59359,-54.27349
2024-03-16 23:04:00+00:00,8.0,1.99,15.0,2.31,12.49,47.59359,-54.27349
2024-03-16 23:14:00+00:00,4.0,2.29,308.0,3.48,12.25,47.59359,-54.27349
2024-03-16 23:24:00+00:00,1.0,2.35,309.0,3.51,12.25,47.59359,-54.27349
2024-03-16 23:34:00+00:00,318.0,3.17,313.0,3.8,12.25,47.59359,-54.27349
2024-03-16 23:44:00+00:00,315.0,3.49,315.0,3.85,12.25,47.59359,-54.27349
2024-03-16 23:54:00+00:00,316.0,3.26,312.0,3.8,12.25,47.59359,-54.27349
